Location: DougsCathedral
(37.2800°N, 110.7300°W)
Time: 15:48:00
(UTC-06:00)

ISS - Visible Passes

Search period start: 18 June 2021 00:00
Search period end: 28 June 2021 00:00
Orbit: 417 x 422 km, 51.6° (Epoch: 18 June)

Date Brightness Start Highest point End Pass type
(mag) Time Alt. Az. Time Alt. Az. Time Alt. Az.
23 Jun -1.7 05:28:44 10° S 05:31:20 21° SE 05:33:56 10° E visible
24 Jun -1.1 04:42:45 10° SSE 04:44:03 12° SE 04:45:22 10° ESE visible
25 Jun -3.6 05:29:40 10° SW 05:33:01 73° SE 05:36:21 10° NE visible
26 Jun -2.8 04:43:49 21° S 04:45:37 38° SE 04:48:45 10° ENE visible
27 Jun -1.9 03:58:15 21° SE 03:58:16 21° SE 04:00:53 10° E visible
27 Jun -2.6 05:31:47 10° WSW 05:34:55 35° NW 05:38:03 10° NE visible
